This is the latest recevied weather packets stored in our database for station/object OE-11213. If no packets are shown the sender has not sent any weather packets the latest 10 day(s).
| Time | Temp. | Humidity | Pressure | Rain* | Wind** | Luminosity | Snow |
|---|---|---|---|---|---|---|---|
| 1787793930 | 17.22° C | 92% | 1017.8 hPa | 0 mm | - | 0 W/m² | - |
| 1787793103 | 17.22° C | 94% | 1017.8 hPa | 0 mm | - | 0 W/m² | - |
| 1787792730 | 17.22° C | 94% | 1017.8 hPa | 0 mm | - | 0 W/m² | - |
| 1787792130 | 17.78° C | 92% | 1017.7 hPa | 0 mm | - | 0 W/m² | - |
| 1787791303 | 17.78° C | 92% | 1017.7 hPa | 0 mm | - | 0 W/m² | - |
| 1787790930 | 17.78° C | 91% | 1017.6 hPa | 0 mm | - | 0 W/m² | - |
| 1787790330 | 17.78° C | 90% | 1017.6 hPa | 0 mm | - | 0 W/m² | - |
| 1787789502 | 18.33° C | 88% | 1017.7 hPa | 0 mm | - | 0 W/m² | - |
| 1787789130 | 18.33° C | 88% | 1017.7 hPa | 0 mm | - | 0 W/m² | - |
| 1787788530 | 18.33° C | 89% | 1017.7 hPa | 0 mm | - | 0 W/m² | - |
| 1787787703 | 18.33° C | 90% | 1017.4 hPa | 0 mm | - | 0 W/m² | - |
| 1787787330 | 18.89° C | 92% | 1017.3 hPa | 0 mm | - | 0 W/m² | - |
| 1787786730 | 18.89° C | 92% | 1017 hPa | 0 mm | - | 0 W/m² | - |
| 1787786130 | 18.89° C | 88% | 1017 hPa | 0 mm | - | 0 W/m² | - |
| 1787785530 | 19.44° C | 88% | 1016.9 hPa | 0 mm | - | 0 W/m² | - |
| 1787784930 | 19.44° C | 88% | 1017.1 hPa | 0 mm | - | 0 W/m² | - |
| 1787784103 | 19.44° C | 90% | 1017.2 hPa | 0 mm | - | 0 W/m² | - |
| 1787783730 | 19.44° C | 90% | 1017.3 hPa | 0 mm | - | 0 W/m² | - |
| 1787783129 | 19.44° C | 90% | 1017.1 hPa | 0 mm | - | 0 W/m² | - |
| 1787782304 | 20° C | 89% | 1017.2 hPa | 0 mm | - | 0 W/m² | - |
| 1787781930 | 20.56° C | 86% | 1017.1 hPa | 0 mm | - | 0 W/m² | - |
| 1787781329 | 20.56° C | 84% | 1017.1 hPa | 0 mm | - | 0 W/m² | - |
| 1787780503 | 20.56° C | 82% | 1017 hPa | 0 mm | - | 0 W/m² | - |
| 1787780130 | 20.56° C | 85% | 1016.9 hPa | 0 mm | - | 0 W/m² | - |
| 1787779529 | 20.56° C | 86% | 1016.8 hPa | 0 mm | - | 0 W/m² | - |
* Rain latest hour (hover to see other rain measurements)
** Current wind speed in m/s (hover to see current wind gust speed)